Weather History for KCDD - September, 2012

Change the Weather History Date:

Tuesday, September 25, 2012

  Actual Average Record
Temperature  
Mean Temperature 38 °F -  
Max Temperature 53 °F 58 °F 73 °F (2004)
Min Temperature 24 °F 39 °F 24 °F (2012)
Degree Days  
Heating Degree Days 26    
Moisture  
Dew Point 32 °F    
Average Humidity 83    
Maximum Humidity 100    
Minimum Humidity 62    
Precipitation  
Precipitation 0.00 in - - ()
Sea Level Pressure  
Sea Level Pressure 29.95 in    
Wind  
Wind Speed 1 mph (NW)    
Max Wind Speed 7 mph    
Max Gust Speed -    
Visibility 10 miles    
Events Rain    
Averages and records for this station are not official NWS values.
T = Trace of Precipitation, MM = Missing Value Source: NWS Daily Summary

Daily Weather History Graph

Daily Weather History Graph

Search for Another Location

Airport or City:

Trip Planner

Search our weather history database for the weather conditions in past years. The results will help you decide how hot, cold, wet, or windy it might be!

Date:

Astronomy

Sep. 25, 2012 Rise Set
Actual Time 7:01 AM CDT 7:00 PM CDT
Civil Twilight 6:30 AM CDT 7:31 PM CDT
Nautical Twilight 5:53 AM CDT 8:07 PM CDT
Astronomical Twilight 5:16 AM CDT 8:45 PM CDT
Moon 4:41 PM CDT (9/25) 2:04 AM CDT (9/25)
Length of Visible Light 13h 01m
Length of Day
11h 58m
Waxing Gibbous, 80% of the Moon is Illuminated
Sep 25
Waxing Gibbous
Sep 29
Full
Oct 8
Last Quarter
Oct 15
New
Oct 21
First Quarter

Hourly Weather History & Observations

Time (CDT) Temp. Windchill Dew Point Humidity Pressure Visibility Wind Dir Wind Speed Gust Speed Precip Events Conditions
12:30 AM 28.4 °F - 24.8 °F 86% 29.89 in 10.0 mi Calm Calm - N/A   Clear
12:50 AM 28.4 °F - 24.8 °F 86% 29.89 in 10.0 mi Calm Calm - N/A   Clear
1:10 AM 26.6 °F - 24.8 °F 93% 29.90 in 10.0 mi Calm Calm - N/A   Clear
1:30 AM 26.6 °F - 23.0 °F 86% 29.90 in 10.0 mi Calm Calm - N/A   Clear
1:50 AM 26.6 °F - 24.8 °F 93% 29.90 in 10.0 mi Calm Calm - N/A   Clear
2:10 AM 26.6 °F - 23.0 °F 86% 29.90 in 10.0 mi Calm Calm - N/A   Clear
2:30 AM 26.6 °F - 23.0 °F 86% 29.90 in 10.0 mi Calm Calm - N/A   Clear
2:50 AM 26.6 °F - 23.0 °F 86% 29.90 in 10.0 mi Calm Calm - N/A   Clear
3:10 AM 26.6 °F - 23.0 °F 86% 29.91 in 10.0 mi Calm Calm - N/A   Clear
3:30 AM 26.6 °F - 23.0 °F 86% 29.91 in 10.0 mi Calm Calm - N/A   Clear
3:50 AM 24.8 °F - 21.2 °F 86% 29.92 in 10.0 mi Calm Calm - N/A   Clear
4:10 AM 26.6 °F - 23.0 °F 86% 29.91 in 10.0 mi Calm Calm - N/A   Clear
4:30 AM 26.6 °F - 23.0 °F 86% 29.92 in 10.0 mi Calm Calm - N/A   Clear
4:50 AM 24.8 °F - 21.2 °F 86% 29.92 in 10.0 mi Calm Calm - N/A   Clear
5:10 AM 26.6 °F - 24.8 °F 93% 29.92 in 10.0 mi Calm Calm - N/A   Mostly Cloudy
5:30 AM 26.6 °F - 24.8 °F 93% 29.93 in 10.0 mi Calm Calm - N/A   Overcast
5:50 AM 28.4 °F - 26.6 °F 93% 29.93 in 10.0 mi Calm Calm - N/A   Overcast
6:10 AM 28.4 °F - 26.6 °F 93% 29.93 in 10.0 mi Calm Calm - N/A   Mostly Cloudy
6:30 AM 26.6 °F - 24.8 °F 93% 29.93 in 10.0 mi Calm Calm - N/A   Scattered Clouds
6:50 AM 26.6 °F - 23.0 °F 86% 29.94 in 10.0 mi Calm Calm - N/A   Clear
7:10 AM 26.6 °F - 23.0 °F 86% 29.94 in 10.0 mi Calm Calm - N/A   Scattered Clouds
7:30 AM 26.6 °F - 24.8 °F 93% 29.95 in 10.0 mi Calm Calm - N/A   Scattered Clouds
7:50 AM 26.6 °F - 24.8 °F 93% 29.95 in 10.0 mi Calm Calm - N/A   Scattered Clouds
8:10 AM 28.4 °F - 26.6 °F 93% 29.95 in 10.0 mi Calm Calm - N/A   Scattered Clouds
8:30 AM 30.2 °F - 28.4 °F 93% 29.95 in 10.0 mi Calm Calm - N/A   Overcast
8:50 AM 33.8 °F - 32.0 °F 93% 29.96 in 10.0 mi Calm Calm - N/A   Overcast
9:10 AM 35.6 °F - 33.8 °F 93% 29.95 in 10.0 mi Calm Calm - N/A   Overcast
9:30 AM 37.4 °F - 35.6 °F 93% 29.96 in 10.0 mi Calm Calm - N/A   Overcast
9:51 AM 39.2 °F - 37.4 °F 93% 29.96 in 10.0 mi Calm Calm - N/A   Overcast
10:10 AM 42.8 °F - 39.2 °F 87% 29.95 in 10.0 mi Calm Calm - N/A   Overcast
10:30 AM 42.8 °F - 42.8 °F 100% 29.96 in 10.0 mi Calm Calm - N/A   Overcast
10:50 AM 44.6 °F - 42.8 °F 93% 29.96 in 10.0 mi Calm Calm - N/A   Overcast
11:10 AM 46.4 °F - 42.8 °F 87% 29.96 in 10.0 mi Calm Calm - N/A   Overcast
11:30 AM 48.2 °F - 44.6 °F 87% 29.97 in 10.0 mi Calm Calm - N/A   Overcast
11:50 AM 48.2 °F - 46.4 °F 93% 29.97 in 10.0 mi Calm Calm - N/A   Overcast
12:10 PM 51.8 °F - 46.4 °F 82% 29.96 in 10.0 mi NW 4.6 mph - N/A   Mostly Cloudy
12:30 PM 51.8 °F - 42.8 °F 71% 29.96 in 10.0 mi North 3.5 mph - N/A   Overcast
12:50 PM 46.4 °F 43.5 °F 39.2 °F 76% 29.97 in 10.0 mi North 5.8 mph - N/A Rain Light Rain
1:10 PM 50.0 °F - 42.8 °F 76% 29.96 in 10.0 mi North 6.9 mph - N/A   Mostly Cloudy
2:10 PM 53.6 °F - 44.6 °F 72% 29.94 in 10.0 mi NW 5.8 mph - N/A   Mostly Cloudy
2:30 PM 48.2 °F - 39.2 °F 71% 29.94 in 7.0 mi WNW 3.5 mph - N/A Rain Light Rain
2:50 PM 51.8 °F - 44.6 °F 76% 29.94 in 10.0 mi WSW 4.6 mph - N/A   Overcast
3:10 PM 50.0 °F - 39.2 °F 66% 29.94 in 10.0 mi West 3.5 mph - N/A   Scattered Clouds
3:30 PM 50.0 °F - 42.8 °F 76% 29.93 in 10.0 mi West 4.6 mph - N/A   Mostly Cloudy
3:50 PM 53.6 °F - 44.6 °F 72% 29.93 in 10.0 mi NW 3.5 mph - N/A   Mostly Cloudy
4:10 PM 51.8 °F - 41.0 °F 67% 29.94 in 10.0 mi Calm Calm - N/A   Overcast
4:30 PM 51.8 °F - 39.2 °F 62% 29.94 in 10.0 mi NNW 6.9 mph - N/A   Overcast
5:10 PM 50.0 °F - 39.2 °F 66% 29.94 in 10.0 mi NNW 5.8 mph - N/A   Mostly Cloudy
5:30 PM 50.0 °F - 39.2 °F 66% 29.94 in 10.0 mi NW 6.9 mph - N/A   Overcast
5:50 PM 48.2 °F - 37.4 °F 66% 20.65 in 10.0 mi Calm Calm - N/A   Overcast
6:10 PM 48.2 °F - 37.4 °F 66% 29.95 in 10.0 mi Calm Calm - N/A   Overcast
6:30 PM 48.2 °F - 37.4 °F 66% 29.96 in 10.0 mi Calm Calm - N/A   Overcast
6:50 PM 46.4 °F - 37.4 °F 71% 29.96 in 10.0 mi Calm Calm - N/A   Overcast
7:10 PM 46.4 °F - 37.4 °F 71% - 10.0 mi Calm Calm - N/A   Overcast
7:50 PM 44.6 °F - 37.4 °F 76% 29.97 in 10.0 mi Calm Calm - N/A   Overcast
8:10 PM 42.8 °F - 33.8 °F 70% 29.98 in 10.0 mi Calm Calm - N/A   Scattered Clouds
8:30 PM 37.4 °F - 30.2 °F 75% 29.98 in 10.0 mi Calm Calm - N/A   Clear
8:50 PM 35.6 °F - 30.2 °F 81% 29.99 in 10.0 mi Calm Calm - N/A   Clear
9:30 PM 33.8 °F - 28.4 °F 81% 30.00 in 10.0 mi Calm Calm - N/A   Clear
9:50 PM 30.2 °F - 26.6 °F 86% 30.00 in 10.0 mi Calm Calm - N/A   Clear
10:10 PM 30.2 °F - 26.6 °F 86% 30.00 in 10.0 mi Calm Calm - N/A   Clear
10:30 PM 30.2 °F - 26.6 °F 86% 30.01 in 10.0 mi Calm Calm - N/A   Clear
10:50 PM 28.4 °F - 26.6 °F 93% 30.01 in 10.0 mi Calm Calm - N/A   Clear
11:10 PM 28.4 °F - 24.8 °F 86% 30.01 in 10.0 mi Calm Calm - N/A   Clear
11:30 PM 28.4 °F - 24.8 °F 86% 30.02 in 10.0 mi Calm Calm - N/A   Clear
11:50 PM 28.4 °F - 24.8 °F 86% 30.02 in 10.0 mi Calm Calm - N/A   Scattered Clouds